Wind_Speed
68 71 70 70 69 65 64 60 63 63 60 56 55 53 47 48 45 44 43 42 40 40 41 42 42 43 43 44 44 47 45 45 52 55 55 58 63 62 60 58 60 57 54 52 48
73 72 73 70 69 69 69 63 63 64 63 59 55 57 50 51 51 49 47 44 42 44 44 43 45 46 47 49 48 49 48 52 52 53 55 58 66 70 63 64 63 65 62 56 53
75 75 75 77 73 73 67 62 63 64 64 60 59 58 58 52 54 56 55 53 53 53 53 53 52 50 49 51 52 52 53 59 56 59 62 61 63 67 67 67 66 66 67 61 58
78 76 76 77 74 66 62 66 64 63 63 61 59 59 61 58 57 58 59 60 59 60 59 59 57 55 56 59 60 57 61 61 61 63 65 69 68 71 71 69 71 67 70 68 63
77 77 75 72 71 68 65 65 62 63 64 59 58 59 60 58 57 58 60 62 64 65 64 64 66 66 64 65 64 62 62 63 64 69 73 71 71 75 75 78 78 76 76 76 72
71 73 74 75 71 69 69 63 62 60 61 65 61 59 61 57 60 61 61 63 64 62 63 65 66 69 70 69 65 66 69 68 70 72 74 75 76 78 74 77 78 81 80 79 78
70 70 69 66 68 66 63 62 60 60 60 63 64 64 63 62 63 63 64 64 65 66 65 67 71 74 73 73 71 71 70 71 73 77 76 75 69 70 71 73 78 80 80 77 80
74 70 69 68 68 65 65 63 59 58 62 64 67 65 64 64 68 69 68 69 69 71 72 73 75 77 75 73 72 74 76 75 79 80 85 79 67 74 74 76 76 78 77 79 78
68 69 72 74 72 72 68 67 66 63 63 63 67 68 67 67 67 72 73 72 72 71 71 73 75 78 80 81 81 83 84 86 88 91 90 90 75 83 84 84 80 78 76 82 85
73 70 70 70 72 70 71 72 67 64 66 68 67 68 69 70 72 74 75 77 78 76 77 80 83 84 85 85 87 91 90 88 89 93 95 90 84 70 85 93 92 92 93 94 87
79 78 76 73 75 74 71 72 69 70 69 67 68 72 74 75 75 75 78 82 82 84 83 82 84 84 86 88 91 92 91 91 88 94 95 95 89 80 79 91 98 99 101 100 95
80 83 82 80 79 74 74 74 74 76 76 77 74 76 80 81 80 81 84 87 88 86 87 89 90 90 90 93 93 93 90 92 85 90 95 93 95 88 82 94 107 109 108 113 109
88 85 88 87 81 80 81 78 79 80 78 81 82 82 82 85 87 87 88 90 92 93 91 90 93 95 94 90 88 93 90 88 90 87 93 89 90 88 100 108 109 118 119 114 103
98 98 95 93 88 87 88 88 88 85 84 85 83 85 87 91 91 91 91 93 95 97 97 97 95 94 91 90 87 89 90 89 92 91 85 88 95 85 92 96 99 99 101 98 96
103 102 99 96 96 93 93 92 91 92 91 85 86 89 91 92 93 95 95 96 96 96 97 95 93 91 92 92 89 91 90 91 91 87 86 87 86 83 75 77 80 79 77 76 75
111 104 103 103 103 100 100 97 97 97 99 93 90 91 92 93 94 97 99 100 96 96 96 94 92 93 92 94 93 89 90 90 85 83 84 81 76 71 69 69 65 57 53 54 56
116 113 106 109 106 102 107 104 101 100 99 99 98 96 94 92 93 96 93 91 93 91 87 85 86 88 90 92 92 87 84 76 72 73 74 69 66 62 58 55 51 46 42 43 45
115 116 112 111 109 106 111 106 103 107 98 100 97 92 91 92 91 89 87 87 86 82 79 81 83 87 90 88 86 83 74 69 63 62 59 58 56 49 44 44 40 39 35 34 38
105 106 110 107 110 104 100 101 100 105 98 97 96 88 87 87 85 83 81 78 76 73 75 78 83 84 85 83 76 70 61 61 58 55 50 46 45 40 34 35 30 28 24 23 26
87 92 97 98 94 98 98 97 95 98 95 96 84 82 79 79 76 76 74 71 69 65 65 69 75 79 80 74 65 57 54 51 48 48 42 39 36 34 29 27 24 18 15 17 19
74 80 84 84 85 86 86 86 86 85 83 82 77 75 74 71 69 70 70 64 63 60 64 69 73 79 71 67 60 54 49 44 42 37 30 30 27 25 22 21 16 10 12 7 12
62 69 73 77 78 76 76 76 74 74 68 71 70 67 66 66 66 63 56 53 56 59 65 71 74 71 66 58 52 46 42 40 36 30 27 28 26 21 16 14 14 18 15 16 3
43 49 55 59 64 64 65 67 64 59 63 63 65 64 58 58 53 52 53 53 56 62 68 70 67 68 58 53 44 38 36 35 32 27 26 27 23 16 15 14 17 22 24 28 18
36 36 36 40 46 49 49 44 45 50 53 55 54 49 45 46 50 47 47 51 56 61 65 67 63 60 51 39 37 34 32 31 31 27 29 28 24 22 23 21 20 20 29 31 31
27 27 31 30 34 39 45 43 48 50 52 49 44 38 42 48 42 40 45 51 56 61 65 62 60 49 45 32 34 33 29 32 30 27 29 31 29 30 29 31 30 24 26 27 30
36 35 32 31 30 33 36 39 37 40 40 36 38 42 40 35 38 43 48 54 58 60 59 58 47 41 38 30 33 32 28 31 36 30 34 32 33 34 33 33 33 30 26 26 35
41 37 32 27 33 38 38 38 37 32 35 41 36 38 39 38 42 49 52 53 53 55 52 45 35 34 32 30 32 29 26 33 38 35 37 36 36 35 36 40 41 40 37 30 32
Wind_Direction
269 268 269 272 274 276 280 274 276 281 281 275 272 272 268 266 265 262 259 261 260 262 262 264 265 266 267 265 266 268 267 265 260 262 260 264 271 273 274 275 273 272 268 265 267
269 270 269 272 271 275 278 271 274 276 278 276 271 271 268 264 261 263 259 257 257 258 262 265 269 267 266 266 267 267 266 265 266 263 263 265 268 271 274 273 274 273 269 265 262
268 269 272 271 274 277 277 272 271 272 275 273 272 268 268 264 263 263 262 261 258 260 262 265 268 269 266 267 267 271 268 269 267 264 264 265 263 267 270 271 269 269 268 266 266
268 271 272 273 274 276 272 268 271 271 272 276 271 265 266 267 265 263 261 263 264 266 265 267 267 270 269 271 268 268 267 269 267 270 270 264 264 267 269 271 271 268 271 270 266
270 269 269 270 272 270 266 267 268 267 271 271 270 265 267 271 268 261 261 260 262 265 265 266 264 268 271 272 267 271 271 272 273 273 271 269 267 264 267 265 263 266 267 267 265
267 269 264 264 266 265 265 264 264 264 266 269 267 267 267 270 265 265 263 262 263 265 268 265 265 269 272 271 273 273 272 275 278 278 278 275 269 266 262 264 267 265 265 268 268
263 266 261 259 263 262 261 260 262 265 266 266 268 268 267 267 264 261 261 262 263 263 264 264 268 269 270 271 271 273 275 275 279 278 280 270 263 265 264 262 259 262 262 262 264
263 263 258 260 258 255 256 256 260 263 263 263 267 266 266 263 264 264 264 261 261 262 263 264 267 269 270 272 274 276 278 278 281 282 279 280 268 262 262 260 260 263 261 260 261
259 257 258 259 257 257 256 257 259 262 264 265 266 264 265 265 265 264 265 265 264 265 267 267 266 269 271 274 277 277 277 278 280 280 279 282 278 262 259 260 260 255 254 260 260
257 258 257 257 254 256 257 258 258 262 265 263 264 267 267 267 266 266 266 267 269 270 270 272 273 274 277 277 278 278 279 279 280 281 281 281 276 266 260 259 256 252 254 252 252
258 256 261 259 254 254 255 258 259 255 259 263 265 266 266 266 267 269 270 269 271 271 271 272 274 277 279 280 281 281 281 279 280 280 281 279 277 274 270 264 256 253 250 246 251
258 257 256 260 261 256 256 257 259 260 260 259 260 262 265 268 269 271 273 273 273 274 275 277 277 279 281 280 282 282 281 279 278 279 281 280 280 275 266 251 257 254 252 251 246
258 258 259 260 261 261 259 261 262 259 260 261 262 262 262 266 268 268 271 274 276 278 279 281 282 283 284 283 285 284 283 282 282 281 285 286 274 273 266 262 255 256 257 257 262
254 256 257 258 260 260 261 264 266 267 264 262 263 264 266 265 268 271 271 273 277 280 281 283 284 286 284 285 284 285 287 288 288 292 291 276 271 270 269 271 273 270 267 267 265
252 253 256 257 260 261 263 264 263 265 265 266 265 265 266 268 269 271 273 275 281 285 286 286 287 286 287 288 288 287 291 292 295 298 292 284 283 284 279 276 272 271 271 266 258
249 251 253 255 256 259 260 260 262 264 268 269 265 269 270 269 271 272 275 278 282 284 287 286 287 287 288 288 288 291 293 296 299 294 290 289 288 286 284 281 281 278 269 260 252
248 249 251 254 254 257 260 259 262 262 264 270 276 274 273 272 273 275 278 281 283 287 286 284 284 285 286 288 291 294 297 297 294 290 289 289 287 284 285 284 281 275 266 258 248
247 249 250 251 253 256 259 261 263 263 267 271 274 273 271 273 273 276 278 279 281 282 283 284 285 287 288 292 295 298 301 296 291 289 289 287 288 290 288 285 276 270 260 250 241
244 245 247 248 249 252 255 257 260 264 266 269 269 270 271 270 273 277 280 280 283 285 284 285 286 287 290 293 296 300 298 294 293 290 287 288 288 286 286 278 270 261 254 239 231
238 240 243 245 246 249 250 252 256 260 262 266 265 268 270 273 275 276 281 284 285 289 288 287 288 291 294 299 301 302 293 292 290 288 290 286 282 282 280 271 262 251 240 239 220
238 236 240 243 243 245 247 248 250 254 257 262 267 268 269 272 276 278 283 287 289 289 287 289 290 291 297 304 304 301 295 292 286 286 284 280 276 273 266 252 240 227 187 197 215
231 235 235 238 241 244 246 248 249 252 254 257 261 263 265 271 278 282 285 288 290 288 288 289 291 296 304 305 300 294 292 286 281 274 263 262 263 253 225 215 201 180 171 110 5
220 227 229 233 239 243 245 246 246 245 250 250 255 263 271 273 279 285 286 287 287 287 288 289 294 300 304 299 294 293 286 273 268 259 252 244 244 199 200 187 186 177 162 151 161
220 221 228 237 243 242 238 239 243 245 248 253 261 270 273 271 276 280 280 282 284 287 290 292 298 301 297 295 292 290 277 262 257 246 244 236 222 191 174 165 173 180 179 178 170
216 220 228 241 239 233 232 226 230 239 250 260 269 265 268 269 273 278 280 281 285 288 291 296 299 298 295 296 292 284 268 257 251 240 231 220 231 191 186 178 179 177 172 183 187
219 228 240 242 237 237 235 233 241 246 249 250 257 262 266 264 275 278 277 281 286 294 298 297 299 296 295 295 288 276 259 247 233 235 231 223 231 194 183 169 172 179 182 184 182
235 234 242 247 231 232 238 243 240 238 243 249 253 256 258 270 271 275 277 284 289 295 292 293 296 290 291 291 279 269 257 235 233 230 226 223 214 202 191 172 167 174 179 171 190
Height
10707 10708 10711 10712 10713 10713 10712 10713 10711 10710 10710 10711 10712 10715 10719 10719 10720 10721 10721 10722 10723 10724 10725 10726 10726 10727 10728 10729 10732 10733 10739 10739 10735 10734 10737 10734 10726 10727 10732 10736 10730 10734 10740 10741 10744
10693 10694 10696 10698 10700 10700 10700 10700 10700 10698 10699 10699 10701 10702 10707 10709 10711 10711 10712 10713 10714 10715 10715 10717 10718 10719 10719 10719 10722 10723 10727 10723 10724 10724 10726 10726 10722 10716 10723 10719 10721 10719 10722 10729 10731
10679 10680 10681 10684 10685 10687 10687 10687 10688 10687 10686 10687 10689 10691 10694 10698 10700 10700 10701 10702 10703 10703 10705 10706 10707 10707 10707 10708 10708 10712 10714 10708 10714 10714 10714 10715 10712 10707 10709 10707 10708 10702 10701 10712 10719
10664 10665 10666 10669 10671 10673 10674 10673 10675 10674 10674 10674 10676 10678 10680 10685 10687 10688 10688 10689 10690 10691 10693 10694 10694 10694 10695 10694 10694 10700 10696 10698 10698 10697 10698 10698 10701 10699 10695 10697 10686 10690 10688 10694 10701
10648 10649 10653 10654 10657 10659 10660 10660 10661 10661 10661 10661 10663 10666 10668 10670 10672 10673 10675 10676 10677 10678 10680 10681 10681 10681 10680 10677 10680 10684 10683 10683 10682 10679 10677 10681 10684 10685 10686 10674 10672 10673 10675 10675 10683
10633 10635 10637 10640 10642 10645 10647 10647 10647 10648 10648 10648 10650 10653 10655 10659 10658 10661 10662 10663 10663 10664 10665 10666 10665 10665 10665 10662 10666 10667 10669 10664 10661 10658 10658 10663 10664 10665 10667 10659 10657 10659 10660 10658 10663
10616 10619 10622 10624 10628 10632 10632 10633 10633 10635 10635 10635 10636 10639 10642 10645 10646 10646 10648 10648 10648 10648 10650 10650 10649 10648 10649 10649 10652 10651 10651 10648 10644 10638 10636 10637 10647 10646 10644 10645 10644 10636 10641 10640 10638
10599 10603 10607 10610 10614 10616 10618 10618 10621 10621 10620 10621 10623 10625 10630 10631 10631 10632 10633 10634 10633 10632 10634 10635 10632 10630 10631 10634 10635 10631 10632 10631 10625 10617 10607 10615 10644 10625 10625 10622 10626 10626 10620 10618 10619
10582 10585 10590 10594 10598 10600 10602 10604 10606 10606 10607 10607 10608 10611 10615 10616 10617 10617 10618 10616 10618 10618 10618 10617 10615 10614 10615 10616 10614 10611 10613 10614 10610 10593 10589 10590 10612 10605 10600 10593 10601 10603 10603 10600 10600
10566 10567 10570 10576 10579 10582 10586 10588 10590 10592 10592 10593 10594 10596 10599 10600 10602 10602 10602 10601 10599 10600 10602 10598 10597 10598 10598 10596 10592 10588 10590 10591 10585 10572 10566 10573 10578 10587 10574 10569 10573 10568 10568 10576 10579
10545 10548 10551 10558 10560 10565 10570 10572 10574 10576 10576 10577 10581 10582 10579 10582 10586 10588 10586 10582 10581 10580 10582 10580 10577 10580 10576 10574 10569 10566 10566 10565 10565 10547 10547 10540 10539 10548 10558 10535 10525 10533 10539 10544 10550
10522 10526 10531 10536 10541 10548 10551 10555 10556 10559 10561 10561 10565 10567 10565 10564 10567 10569 10566 10563 10562 10563 10562 10559 10557 10556 10557 10551 10547 10540 10540 10534 10548 10529 10510 10513 10506 10505 10513 10505 10486 10493 10500 10502 10514
10499 10503 10507 10514 10522 10528 10533 10537 10538 10538 10542 10545 10549 10550 10551 10547 10549 10553 10550 10545 10542 10542 10541 10538 10535 10533 10531 10526 10527 10512 10511 10510 10503 10511 10494 10475 10468 10477 10458 10455 10463 10455 10452 10461 10473
10474 10479 10484 10495 10502 10507 10512 10517 10519 10520 10524 10529 10530 10533 10532 10529 10533 10533 10532 10527 10525 10523 10521 10517 10514 10509 10508 10506 10505 10491 10484 10481 10472 10465 10466 10443 10433 10453 10441 10434 10423 10419 10424 10434 10442
10446 10454 10464 10474 10479 10484 10490 10498 10497 10500 10500 10511 10515 10513 10514 10514 10514 10515 10509 10508 10507 10503 10498 10494 10488 10484 10481 10480 10478 10468 10462 10453 10446 10436 10422 10414 10412 10411 10412 10404 10393 10393 10398 10399 10406
10420 10431 10441 10449 10455 10462 10467 10474 10478 10478 10483 10489 10494 10496 10495 10497 10496 10495 10493 10492 10490 10485 10477 10474 10469 10464 10459 10454 10451 10449 10441 10430 10422 10411 10400 10396 10391 10388 10382 10374 10371 10374 10373 10372 10375
10393 10407 10418 10424 10433 10441 10439 10449 10456 10461 10469 10472 10473 10475 10475 10477 10479 10475 10476 10477 10472 10464 10457 10455 10449 10446 10440 10433 10429 10425 10418 10412 10405 10392 10383 10377 10370 10367 10360 10358 10354 10353 10353 10352 10355
10366 10382 10391 10400 10409 10418 10420 10430 10433 10444 10451 10451 10454 10455 10455 10457 10458 10457 10458 10459 10454 10449 10440 10432 10430 10422 10416 10415 10410 10402 10396 10387 10382 10374 10367 10360 10354 10350 10348 10343 10342 10339 10337 10339 10342
10339 10351 10361 10375 10384 10396 10403 10409 10416 10422 10432 10432 10432 10437 10437 10437 10440 10440 10441 10439 10435 10432 10426 10417 10408 10406 10401 10398 10393 10388 10379 10368 10361 10356 10354 10347 10340 10337 10339 10334 10331 10328 10328 10329 10335
10315 10327 10338 10351 10365 10374 10381 10392 10400 10407 10409 10414 10420 10422 10421 10422 10423 10424 10423 10421 10418 10415 10408 10401 10393 10387 10381 10379 10375 10367 10359 10354 10349 10343 10340 10336 10333 10329 10331 10326 10324 10325 10324 10326 10332
10296 10309 10321 10334 10345 10354 10364 10376 10382 10389 10396 10399 10402 10406 10406 10408 10408 10410 10407 10405 10401 10399 10393 10389 10382 10370 10373 10362 10354 10348 10342 10338 10334 10334 10330 10326 10325 10326 10323 10320 10319 10323 10324 10329 10333
10283 10294 10308 10318 10329 10337 10348 10358 10369 10375 10381 10385 10387 10390 10394 10396 10397 10396 10394 10390 10386 10383 10379 10374 10367 10358 10355 10350 10341 10336 10330 10325 10325 10324 10322 10319 10318 10319 10317 10318 10318 10318 10322 10329 10335
10275 10285 10294 10306 10314 10325 10334 10343 10354 10359 10365 10371 10374 10379 10384 10385 10383 10383 10381 10377 10374 10370 10363 10358 10356 10347 10344 10336 10327 10325 10320 10316 10316 10316 10316 10313 10313 10315 10314 10317 10318 10319 10323 10326 10334
10269 10280 10290 10300 10306 10315 10323 10331 10339 10347 10352 10357 10364 10369 10371 10372 10371 10371 10369 10367 10363 10357 10349 10342 10341 10335 10327 10325 10317 10314 10311 10308 10307 10309 10307 10307 10306 10308 10309 10314 10318 10320 10320 10325 10333
10267 10276 10284 10292 10297 10303 10313 10323 10330 10337 10341 10348 10354 10358 10360 10360 10359 10359 10358 10355 10350 10345 10337 10331 10327 10320 10313 10314 10307 10304 10302 10300 10300 10303 10302 10301 10301 10303 10304 10305 10311 10317 10323 10326 10332
10261 10269 10277 10284 10291 10297 10305 10315 10323 10328 10334 10340 10344 10348 10348 10348 10348 10347 10347 10343 10339 10331 10324 10317 10314 10306 10302 10302 10297 10295 10294 10292 10292 10294 10295 10298 10298 10298 10301 10304 10309 10313 10319 10324 10331
10252 10261 10271 10277 10283 10291 10299 10307 10312 10319 10326 10331 10335 10337 10338 10338 10338 10337 10335 10332 10327 10321 10314 10307 10304 10297 10294 10292 10287 10286 10285 10283 10284 10286 10287 10292 10293 10293 10297 10299 10305 10310 10313 10318 10324